Wind_Speed
37 33 31 32 33 34 38 44 47 51 54 55 57 58 56 56 58 58 60 62 62 62 63 64 64 62 62 64 65 65 65 65 63 65 65 64 67 67 68 69 71 73 73
32 29 30 36 40 43 47 50 51 53 55 56 53 53 55 58 60 62 62 63 63 62 63 61 61 64 65 63 63 63 63 64 64 63 66 67 68 70 72 72 72 73 72
30 36 38 41 44 47 49 51 53 53 50 51 53 56 59 60 61 62 61 61 62 61 60 64 64 61 61 62 63 65 66 67 67 67 68 71 72 73 71 70 69 67 67
37 40 43 45 46 47 47 45 46 49 51 54 57 59 61 60 59 59 59 58 59 63 64 62 62 63 64 65 67 68 69 70 72 72 72 73 72 70 68 67 67 72 75
39 39 41 41 40 41 43 45 49 53 55 57 59 59 58 58 56 56 57 62 65 64 62 64 65 65 67 69 70 72 74 74 74 73 72 70 68 67 69 73 77 80 82
35 34 35 36 39 43 46 50 53 54 56 56 57 57 54 53 55 60 65 64 62 64 66 66 67 68 71 72 74 75 77 76 75 72 70 70 73 78 80 83 86 89 89
30 33 38 41 44 48 51 53 52 54 55 54 53 51 53 58 63 65 63 62 66 67 67 68 71 73 74 76 77 76 75 74 72 71 74 80 82 87 90 91 94 97 100
34 39 43 45 48 50 50 51 52 53 51 49 51 55 60 64 63 63 65 67 68 69 71 73 75 77 78 78 76 72 70 70 73 77 81 85 89 92 97 100 104 105 104
40 43 47 45 48 49 50 50 50 47 48 53 58 62 62 62 64 67 68 68 70 73 75 77 77 78 78 76 72 69 70 74 79 83 86 90 94 98 104 108 109 111 108
46 48 46 43 50 48 45 44 46 50 55 60 61 60 62 64 66 67 69 72 75 76 78 79 78 76 74 71 72 74 78 83 86 89 92 95 100 105 108 110 112 110 106
46 42 40 40 46 43 44 48 53 57 60 58 60 61 63 67 70 71 74 76 77 78 78 76 74 73 71 73 78 82 86 90 93 97 100 103 106 108 108 107 103 100 98
35 36 37 40 41 45 50 54 58 58 58 61 63 65 68 72 74 76 78 78 79 77 73 71 72 72 75 80 84 88 92 97 100 103 105 107 107 106 102 98 95 94 95
33 34 37 42 46 51 55 58 57 59 61 63 66 68 72 75 78 78 79 79 76 73 70 72 73 77 81 86 90 94 98 102 106 107 107 105 101 98 96 95 94 93 90
33 38 42 47 53 57 58 56 59 60 63 65 68 72 75 78 78 79 78 75 73 71 72 77 80 84 88 92 96 101 104 106 106 105 101 98 96 95 95 94 91 87 83
39 45 50 55 55 53 56 58 60 62 65 69 73 75 77 78 78 77 75 74 74 76 80 83 86 90 94 99 101 103 104 103 101 99 97 96 94 93 90 87 84 81 77
47 50 52 50 54 55 57 59 62 65 69 73 75 77 78 78 76 74 74 76 79 83 86 89 93 97 102 104 105 104 101 99 98 97 96 95 92 89 85 82 79 75 69
45 46 49 50 54 58 59 61 65 70 73 76 77 78 79 76 75 76 78 82 86 89 92 96 101 104 106 105 102 99 97 97 97 96 94 91 88 84 81 75 71 66 60
45 47 50 55 58 60 63 67 71 74 76 77 78 76 75 75 77 81 85 87 90 95 99 102 104 104 101 98 96 95 95 95 93 90 87 85 81 77 72 67 63 58 53
47 51 56 59 61 64 68 71 73 74 75 75 73 72 73 77 82 85 88 91 95 99 101 101 100 98 96 94 94 94 94 92 88 85 81 77 73 69 64 60 55 51 48
53 57 60 62 65 67 69 70 72 71 69 68 69 73 79 82 86 89 93 97 100 100 99 97 95 94 93 93 93 92 89 85 81 77 72 69 65 62 57 52 49 46 42
57 59 61 64 66 66 68 67 66 65 66 69 74 78 82 86 90 95 98 100 100 97 95 94 93 91 92 93 91 86 81 77 73 69 65 61 59 54 50 47 43 42 39
59 61 62 62 63 63 62 61 62 66 70 74 79 83 87 91 94 97 99 98 95 93 93 91 89 91 92 89 83 78 73 70 66 62 58 54 51 48 44 42 39 36 34
58 58 59 59 57 57 59 61 65 69 74 78 82 85 90 93 96 96 94 91 91 90 89 89 90 90 86 79 74 70 65 62 58 55 51 48 45 42 40 37 36 33 31
55 54 53 53 55 57 60 65 70 74 77 80 84 89 92 94 92 89 88 88 87 87 88 90 88 82 74 68 64 58 53 49 47 47 47 45 41 39 37 34 35 33 30
49 49 51 52 55 59 64 68 72 74 79 84 88 90 90 87 85 86 86 86 86 88 88 84 76 69 62 55 48 46 47 47 46 44 43 42 40 37 35 33 30 27 28
47 49 52 56 59 63 67 69 74 80 85 88 89 87 84 82 83 84 84 86 87 83 75 69 62 54 47 45 46 46 48 47 45 44 43 42 38 35 34 30 28 24 22
Wind_Direction
257 262 267 272 276 277 280 281 282 285 288 290 293 295 297 298 298 298 298 298 299 299 301 301 301 302 302 302 300 300 300 300 300 301 300 299 299 299 298 296 293 291 291
265 263 265 269 272 273 274 280 285 288 289 291 294 295 296 296 296 297 298 300 301 301 301 302 303 302 302 303 303 302 301 300 301 300 298 298 298 297 296 295 294 293 292
262 267 267 267 273 279 283 285 287 289 292 294 294 294 293 295 298 300 302 302 302 302 302 303 303 304 304 304 303 302 301 301 300 301 300 299 298 297 296 296 296 296 295
264 266 270 275 280 282 284 287 290 291 291 291 292 293 296 300 302 303 301 301 301 303 305 305 305 305 304 304 303 301 302 302 303 302 301 299 298 298 298 299 299 300 300
270 273 276 278 281 285 287 288 289 289 290 291 294 299 302 302 302 302 302 303 305 306 305 305 306 306 305 304 304 305 305 304 303 302 301 300 299 300 300 300 301 301 301
271 274 278 281 284 285 285 286 287 289 292 298 302 303 301 301 302 304 305 306 305 305 307 308 307 306 305 306 306 306 306 305 303 303 302 303 304 304 303 305 305 304 302
274 277 280 282 284 285 287 288 290 295 300 301 299 298 301 304 306 307 306 307 308 308 308 308 307 307 307 307 307 307 306 306 306 306 307 307 306 307 307 306 306 307 307
276 280 282 283 284 285 288 293 299 299 299 298 300 303 305 306 307 308 309 310 310 309 308 308 308 309 308 307 306 307 306 307 308 308 307 308 309 309 309 309 308 308 307
278 280 281 287 288 293 298 298 296 296 299 303 306 307 307 308 311 311 311 310 309 309 310 309 309 309 307 307 308 307 307 307 308 309 310 310 310 310 310 309 307 307 307
278 279 282 283 294 297 294 297 299 303 305 306 306 306 311 313 312 311 310 309 310 311 311 310 310 308 308 308 308 308 309 310 310 310 310 310 310 310 308 308 308 308 308
282 290 291 288 293 298 299 302 303 302 303 303 306 310 310 312 311 310 311 311 311 311 310 310 309 308 309 309 309 310 311 311 312 312 311 310 309 308 307 308 308 308 309
293 292 293 293 293 296 298 299 301 303 304 308 308 308 308 310 311 311 311 311 311 310 310 309 308 310 310 311 311 312 312 313 313 312 310 309 309 309 308 308 309 309 309
290 290 289 293 295 297 299 301 303 305 307 307 307 307 309 310 311 311 311 311 311 311 311 309 310 311 312 313 313 313 312 312 311 310 309 309 309 309 309 310 310 310 310
288 289 292 294 298 300 301 302 305 306 306 307 308 310 311 311 311 311 311 311 310 311 311 313 314 314 314 314 313 313 312 310 310 310 310 310 310 311 311 311 311 311 310
289 292 294 298 301 301 303 305 306 307 308 309 310 310 310 311 312 312 311 312 314 314 313 314 314 314 315 314 313 312 311 310 311 311 311 311 311 311 311 311 311 311 311
291 294 297 299 302 304 305 307 308 308 309 310 310 311 312 312 312 313 314 314 314 314 314 315 315 315 315 314 312 311 311 311 312 311 311 311 312 312 312 312 312 313 312
294 297 302 306 307 308 308 308 308 309 310 310 311 311 311 312 314 315 315 315 314 315 315 316 316 315 313 311 312 312 312 312 312 312 312 312 312 313 313 313 314 314 314
302 307 309 308 308 308 308 308 309 309 310 310 311 312 314 315 316 316 315 314 315 316 316 315 313 312 312 313 312 312 312 312 312 312 312 312 313 313 314 315 316 316 314
306 308 308 308 307 307 307 307 308 309 309 310 313 315 316 315 314 314 315 316 316 315 313 312 312 313 313 313 313 312 312 312 312 312 312 313 314 314 316 317 317 316 315
306 306 306 306 306 306 307 307 307 308 311 314 315 315 315 315 315 316 316 316 315 313 312 313 313 313 313 313 313 313 313 313 313 313 313 314 314 315 316 317 316 315 317
305 306 305 304 305 305 305 308 310 313 315 315 314 315 315 317 317 316 315 314 313 313 314 314 314 314 314 314 314 314 314 314 314 314 314 315 314 315 316 315 315 316 318
304 303 303 304 305 307 309 312 315 315 315 315 316 317 318 318 317 315 314 314 315 315 314 315 315 315 315 315 315 315 315 315 314 315 316 315 314 314 315 314 314 316 319
303 304 305 307 309 311 314 316 315 315 315 316 319 319 318 317 316 315 315 316 315 315 315 315 315 315 315 316 316 317 316 317 318 318 318 316 315 314 312 311 312 316 320
305 306 307 310 314 316 316 316 315 316 319 320 321 320 318 316 316 317 317 316 316 316 315 316 316 317 317 318 319 321 323 326 326 326 323 320 315 313 312 314 315 316 318
307 309 313 316 315 316 316 316 319 321 322 322 321 319 318 318 319 318 318 317 317 317 317 317 318 319 321 323 327 329 330 331 332 332 331 327 321 316 312 308 304 307 311
313 316 315 315 316 317 320 322 324 325 325 323 321 320 320 320 320 320 320 319 319 319 319 320 322 325 328 331 334 336 337 336 337 338 338 338 332 322 313 309 306 307 311
Height
5747 5747 5747 5746 5745 5743 5741 5738 5734 5731 5727 5723 5718 5713 5708 5703 5697 5691 5685 5678 5672 5666 5659 5653 5647 5640 5633 5626 5618 5610 5603 5598 5594 5587 5578 5571 5564 5558 5551 5543 5536 5529 5521
5740 5740 5740 5739 5738 5735 5732 5729 5725 5721 5716 5711 5706 5701 5696 5690 5684 5678 5671 5665 5659 5652 5646 5639 5632 5625 5618 5609 5602 5595 5587 5579 5575 5571 5561 5553 5545 5538 5531 5524 5516 5507 5501
5733 5733 5731 5729 5727 5724 5722 5719 5715 5711 5705 5700 5695 5690 5684 5678 5671 5666 5659 5652 5645 5639 5632 5625 5617 5610 5602 5593 5585 5578 5572 5563 5556 5549 5542 5533 5524 5517 5511 5503 5494 5487 5480
5724 5723 5722 5720 5718 5715 5712 5708 5704 5700 5694 5688 5682 5677 5671 5665 5660 5653 5646 5639 5632 5625 5617 5610 5602 5594 5586 5578 5570 5561 5553 5545 5535 5528 5520 5513 5504 5497 5489 5482 5477 5466 5460
5716 5715 5713 5711 5708 5705 5703 5697 5693 5688 5682 5676 5670 5664 5658 5653 5647 5640 5633 5627 5618 5610 5602 5594 5586 5577 5570 5561 5552 5542 5533 5524 5515 5507 5499 5490 5482 5476 5468 5461 5454 5444 5436
5708 5706 5705 5702 5699 5695 5691 5686 5681 5675 5670 5664 5658 5653 5647 5640 5633 5627 5619 5611 5602 5594 5586 5577 5569 5561 5551 5542 5533 5522 5511 5502 5495 5486 5476 5468 5459 5451 5445 5436 5427 5417 5411
5699 5698 5696 5692 5687 5683 5679 5674 5668 5663 5658 5653 5648 5641 5634 5627 5619 5612 5603 5595 5587 5578 5570 5561 5552 5543 5534 5524 5514 5504 5492 5481 5471 5463 5454 5442 5435 5423 5416 5410 5397 5387 5373
5690 5688 5684 5679 5675 5671 5667 5662 5657 5653 5648 5642 5635 5628 5620 5613 5605 5596 5589 5580 5572 5562 5553 5544 5535 5525 5514 5505 5496 5488 5476 5465 5455 5444 5432 5421 5408 5397 5383 5373 5364 5357 5348
5681 5676 5673 5670 5665 5660 5656 5652 5647 5641 5635 5627 5620 5613 5606 5599 5591 5583 5575 5565 5555 5546 5535 5526 5517 5507 5495 5485 5477 5469 5460 5449 5438 5425 5410 5396 5382 5366 5351 5340 5326 5313 5309
5669 5666 5663 5659 5655 5652 5646 5639 5634 5627 5620 5614 5607 5601 5594 5586 5577 5568 5559 5550 5540 5531 5518 5506 5496 5486 5475 5466 5457 5449 5440 5429 5418 5406 5391 5375 5359 5343 5324 5306 5289 5276 5263
5659 5656 5653 5648 5644 5639 5634 5629 5622 5616 5609 5603 5598 5589 5581 5572 5562 5553 5544 5534 5525 5514 5501 5490 5478 5467 5458 5448 5436 5426 5415 5404 5393 5379 5366 5351 5335 5318 5302 5284 5265 5249 5236
5649 5645 5643 5639 5634 5629 5623 5617 5610 5603 5598 5591 5583 5576 5567 5557 5547 5538 5527 5517 5505 5496 5485 5473 5461 5451 5439 5427 5415 5402 5390 5377 5365 5352 5337 5321 5307 5291 5276 5260 5244 5228 5211
5641 5638 5634 5629 5623 5617 5611 5605 5599 5593 5586 5579 5570 5561 5551 5541 5531 5521 5509 5498 5486 5475 5466 5454 5444 5433 5420 5407 5391 5377 5364 5351 5337 5323 5308 5294 5279 5264 5249 5235 5220 5206 5193
5631 5627 5623 5618 5613 5607 5601 5595 5589 5581 5573 5564 5555 5545 5535 5524 5513 5502 5491 5480 5469 5460 5447 5436 5424 5412 5399 5386 5373 5356 5338 5321 5307 5293 5280 5266 5253 5239 5224 5209 5197 5184 5172
5622 5618 5614 5609 5603 5597 5591 5584 5576 5567 5558 5549 5540 5530 5519 5505 5494 5483 5472 5462 5451 5442 5430 5419 5406 5393 5379 5363 5346 5328 5311 5296 5282 5267 5253 5240 5228 5215 5202 5187 5173 5162 5149
5614 5609 5604 5598 5593 5585 5578 5570 5562 5552 5544 5534 5523 5512 5501 5490 5478 5466 5455 5445 5434 5423 5410 5398 5385 5370 5355 5340 5324 5308 5289 5273 5258 5244 5229 5215 5203 5191 5180 5168 5153 5141 5130
5603 5599 5593 5586 5579 5572 5564 5556 5547 5537 5527 5516 5506 5495 5484 5473 5461 5450 5440 5428 5413 5403 5388 5373 5358 5343 5328 5312 5296 5281 5266 5249 5235 5220 5206 5192 5180 5169 5157 5147 5136 5125 5116
5592 5586 5580 5573 5565 5558 5549 5541 5532 5522 5511 5500 5490 5480 5469 5457 5445 5433 5422 5408 5395 5377 5364 5349 5333 5317 5302 5287 5272 5257 5242 5227 5213 5198 5185 5172 5161 5150 5140 5129 5119 5110 5102
5581 5575 5568 5560 5552 5544 5535 5526 5517 5506 5496 5485 5474 5463 5453 5440 5427 5414 5402 5389 5375 5359 5341 5324 5307 5293 5278 5264 5249 5234 5219 5205 5191 5178 5165 5153 5142 5132 5124 5114 5106 5096 5089
5569 5562 5554 5547 5538 5529 5520 5511 5502 5492 5481 5470 5458 5448 5436 5424 5410 5395 5379 5364 5349 5333 5317 5301 5284 5269 5255 5241 5227 5212 5197 5183 5171 5158 5148 5137 5126 5116 5109 5102 5093 5087 5080
5555 5548 5540 5532 5524 5515 5506 5496 5486 5476 5465 5454 5442 5430 5419 5406 5392 5375 5359 5341 5325 5309 5294 5278 5262 5247 5232 5217 5203 5189 5175 5163 5152 5142 5133 5123 5112 5106 5097 5090 5084 5077 5072
5541 5534 5526 5518 5509 5500 5491 5481 5471 5462 5451 5440 5427 5413 5400 5386 5370 5354 5336 5319 5302 5286 5271 5257 5242 5225 5210 5196 5182 5169 5157 5145 5135 5127 5118 5110 5101 5094 5087 5081 5075 5070 5065
5528 5520 5512 5504 5495 5486 5477 5467 5457 5447 5436 5424 5411 5397 5380 5364 5347 5330 5313 5297 5281 5265 5248 5234 5221 5205 5189 5175 5162 5152 5142 5131 5121 5113 5106 5097 5090 5084 5078 5073 5067 5063 5060
5514 5506 5498 5490 5481 5472 5463 5453 5443 5432 5419 5406 5391 5375 5358 5341 5325 5308 5293 5278 5262 5246 5229 5214 5199 5185 5172 5159 5146 5136 5126 5118 5110 5102 5094 5087 5080 5074 5068 5064 5059 5056 5053
5500 5493 5485 5476 5468 5459 5449 5439 5428 5415 5402 5387 5371 5355 5337 5321 5305 5289 5273 5258 5242 5227 5210 5194 5180 5168 5156 5145 5135 5126 5118 5110 5102 5094 5086 5078 5070 5064 5059 5056 5054 5051 5047
5487 5480 5472 5464 5456 5446 5435 5423 5411 5397 5382 5366 5349 5332 5317 5302 5286 5270 5254 5238 5222 5206 5190 5177 5166 5155 5146 5137 5128 5119 5111 5103 5095 5087 5079 5071 5063 5057 5051 5048 5045 5043 5042